Regional Weather Roundup
Issued by NWS

Home | Current Version | Previous Version | Graphics & Text | Print | Product List | Glossary On
Versions: 1 2 3 4 5 6 7 8 9 10 11 12 13 14 15 16 17 18 19 20 21 22 23 24 25 26 27 28 29 30 31 32 33 34 35 36 37 38 39 40 41 42 43 44 45 46 47 48 49 50
898
ASUS43 KBIS 080102
RWRND

NORTH DAKOTA REGIONAL WEATHER ROUNDUP
NATIONAL WEATHER SERVICE BISMARCK ND
700 PM CST SUN FEB 07 2016

NOTE: "FAIR" INDICATES FEW OR NO CLOUDS BELOW 12,000 FEET WITH NO
SIGNIFICANT WEATHER AND/OR OBSTRUCTIONS TO VISIBILITY.


NDZ001>003-009>011-017-080200-
NORTHWEST NORTH DAKOTA

CITY           SKY/WX    TMP DP  RH WIND       PRES   REMARKS
WILLISTON      CLEAR     32  18  56 NW21G37   30.25R WCI  20
MINOT          CLOUDY    32  17  54 NW36G44   30.12R WCI  16
MINOT AFB      CLOUDY    29  19  64 NW33G46   30.10R WCI  13
$$

NDZ018>021-031>035-040>046-080200-
SOUTHWEST NORTH DAKOTA

CITY           SKY/WX    TMP DP  RH WIND       PRES   REMARKS
BISMARCK       CLOUDY    36  18  48 N21G30    30.10R
DICKINSON      CLEAR     29  14  53 NW22G35   30.18R WCI  15
GARRISON         N/A     32  20  61 NW35G45   30.11R WCI  17
HETTINGER ARPT PTCLDY    31  14  49 NW24G31   30.20R WCI  17
$$

NDZ004>008-012>016-024-026-027-054-080200-
NORTHEAST NORTH DAKOTA

CITY           SKY/WX    TMP DP  RH WIND       PRES   REMARKS
GRAND FORKS    SNOW      15  10  80 N29G44    29.98R VSB 1/2 WCI  -5
GRND FRKS AFB  LGT SNOW  15  11  83 N25G39    29.98R WCI  -4
DEVILS LAKE    FLURRIES  19  13  77 N31G45    30.00R WCI   0
$$

NDZ022-023-025-028>030-036>039-047>053-080200-
SOUTHEAST NORTH DAKOTA

CITY           SKY/WX    TMP DP  RH WIND       PRES   REMARKS
FARGO          LGT SNOW  17  12  80 N26G32    29.95R WCI  -2
JAMESTOWN      CLOUDY    23  15  71 NW35G51   29.98R WCI   4
$$





USA.gov is the U.S. government's official web portal to all federal, state and local government web resources and services.